Regional Weather Roundup
Issued by NWS

Home | Current Version | Previous Version | Text Only | Print | Product List | Glossary Off
Versions: 1 2 3 4 5 6 7 8 9 10 11 12 13 14 15 16 17 18 19 20 21 22 23 24 25 26 27 28 29 30 31 32 33 34 35 36 37 38 39 40 41 42 43 44 45 46 47 48 49 50

482
ASUS45 KCYS 172010
RWRWY

WYOMING REGIONAL WEATHER ROUNDUP
NATIONAL WEATHER SERVICE CHEYENNE WY
100 PM MST TUE JAN 17 2017

NOTE:  "FAIR" INDICATES FEW OR NO CLOUDS BELOW 12,000 FEET
WITH NO SIGNIFICANT WEATHER AND/OR OBSTRUCTIONS TO VISIBILITY.

WYZ001-172100-
YELLOWSTONE NATIONAL PARK

CITY           SKY/WX    TMP DP  RH WIND       PRES   REMARKS
LK YELLOWSTONE   N/A     11   4  73 CALM      30.15F
W YELLOWSTONE  NOT AVBL

$$
WYZ002>013-054>058-071-098>099-172100-
NORTHERN WYOMING

CITY           SKY/WX    TMP DP  RH WIND       PRES   REMARKS
JACKSON        SUNNY      3   1  92 CALM      30.22F
CODY           FAIR      27  11  51 CALM      29.97F
GREYBULL       FAIR       5  -4  66 N5        30.04F WCI  -4
WORLAND        FAIR      16   6  65 CALM      30.01F
SHERIDAN       FAIR      30  12  47 VRB5      29.87F WCI  25
BUFFALO        FAIR      39  17  41 S5        29.89F
GILLETTE       FAIR      40  20  44 SW21      29.89F WCI  30
HULETT         FAIR      39  14  35 SW15      29.90F WCI  31
NEWCASTLE      FAIR      30  18  59 CALM      29.95F

$$
WYZ014>020-022>026-101>103-172100-
CENTRAL WYOMING

CITY           SKY/WX    TMP DP  RH WIND       PRES   REMARKS
BIG PINEY      FAIR      -1  -6  79 CALM      30.15F
PINEDALE       FAIR       1  -4  78 E3        30.14F
DUBOIS         NOT AVBL
LANDER         FAIR      16   7  67 N3        30.06F
RIVERTON       FAIR      11   6  81 CALM      30.08F
CASPER         FAIR      35   9  33 SW32G46   30.01F WCI  21
DOUGLAS        FAIR      50   8  18 NW16      29.95F

$$
WYZ021-027>030-104>119-172100-
SOUTHERN WYOMING

CITY           SKY/WX    TMP DP  RH WIND       PRES   REMARKS
EVANSTON       FAIR      15   7  70 CALM      30.15F
ROCK SPRINGS   FAIR       1  -6  72 CALM      30.15F
RAWLINS        FAIR      20   9  62 SW13      30.14F WCI   7
LARAMIE        FAIR      16  11  80 NW3       30.05F
CHEYENNE       FAIR      50   3  14 W7        29.97F
TORRINGTON     FAIR      45  13  27 N3        29.96F

$$




USA.gov is the U.S. government's official web portal to all federal, state and local government web resources and services.